When you browse on this site, cookies collect data to enhance your experience and personalize the content and advertising you see.
Visit our Privacy Policy to learn more. By continuing to use the site, you agree to this use of cookies and data.
  • In Hungary
  • List of Countries
  • For 7 days
  • Water Temperature
  • Satellite Maps
  • Weather Map
  • News
  • Weather Widgets
  • user-avatar
    Login

    Hourly Weather Bolton

    Today, 14 December, Friday

    Time Temperature Precipitation Wind Pressure Humidity
    00:00 -1°C° 0 mm 5 mps 749 mmHg 81%
    01:00 -1°C° 0 mm 5 mps 749 mmHg 82%
    02:00 -2°C° 0 mm 4 mps 749 mmHg 83%
    03:00 -2°C° 0 mm 4 mps 749 mmHg 85%
    04:00 -2°C° 0 mm 4 mps 749 mmHg 85%
    05:00 -2°C° 0 mm 4 mps 749 mmHg 85%
    06:00 -2°C° 0 mm 4 mps 749 mmHg 86%
    07:00 -2°C° 0 mm 4 mps 749 mmHg 85%
    08:00 -2°C° 0 mm 4 mps 749 mmHg 84%
    09:00 -2°C° 0 mm 4 mps 749 mmHg 82%
    10:00 -1°C° 0 mm 4 mps 749 mmHg 77%
    11:00 0°C° 0 mm 5 mps 749 mmHg 72%
    12:00 0°C° 0 mm 5 mps 749 mmHg 67%
    13:00 0°C° 0 mm 5 mps 749 mmHg 68%
    14:00 0°C° 0 mm 5 mps 749 mmHg 70%
    15:00 0°C° 0 mm 5 mps 749 mmHg 71%
    16:00 -1°C° 0 mm 5 mps 748 mmHg 74%
    17:00 -1°C° 0 mm 5 mps 748 mmHg 77%
    18:00 -1°C° 0 mm 5 mps 748 mmHg 80%
    19:00 -1°C° 0 mm 5 mps 748 mmHg 80%
    20:00 -2°C° 0 mm 6 mps 748 mmHg 80%
    21:00 -2°C° 0 mm 6 mps 748 mmHg 80%
    22:00 -3°C° 0 mm 6 mps 748 mmHg 79%
    23:00 -3°C° 0 mm 6 mps 747 mmHg 79%

    Tomorrow, 15 December, Saturday

    Time Temperature Precipitation Wind Pressure Humidity
    00:00 -3°C° 0 mm 7 mps 747 mmHg 78%
    01:00 -3°C° 0 mm 7 mps 746 mmHg 77%
    02:00 -3°C° 0 mm 7 mps 746 mmHg 75%
    03:00 -4°C° 0 mm 8 mps 745 mmHg 74%
    04:00 -4°C° 0.1 mm 8 mps 744 mmHg 74%
    05:00 -4°C° 0.1 mm 8 mps 743 mmHg 75%
    06:00 -4°C° 0.1 mm 9 mps 743 mmHg 75%
    07:00 -4°C° 0.2 mm 9 mps 742 mmHg 76%
    08:00 -3°C° 0.2 mm 9 mps 742 mmHg 77%
    09:00 -3°C° 0.2 mm 10 mps 741 mmHg 78%
    10:00 -3°C° 0.3 mm 10 mps 740 mmHg 79%
    11:00 -3°C° 0.3 mm 10 mps 739 mmHg 79%
    12:00 -3°C° 0.3 mm 11 mps 738 mmHg 80%
    13:00 -3°C° 0.2 mm 11 mps 736 mmHg 80%
    14:00 -2°C° 0.2 mm 11 mps 735 mmHg 80%
    15:00 -2°C° 0.2 mm 11 mps 733 mmHg 80%
    16:00 -2°C° 1.4 mm 11 mps 732 mmHg 82%
    17:00 -2°C° 1.4 mm 11 mps 730 mmHg 84%
    18:00 -2°C° 1.4 mm 12 mps 728 mmHg 85%
    19:00 -1°C° 1.1 mm 11 mps 727 mmHg 87%
    20:00 +1°C° 1.1 mm 10 mps 725 mmHg 88%
    21:00 +1°C° 1.1 mm 9 mps 724 mmHg 90%
    22:00 +2°C° 0.6 mm 9 mps 724 mmHg 91%
    23:00 +2°C° 0.6 mm 8 mps 724 mmHg 91%

    Day after tomorrow, 16 December, Sunday

    Time Temperature Precipitation Wind Pressure Humidity
    00:00 +4°C° 0.6 mm 8 mps 724 mmHg 92%
    01:00 +3°C° 1 mm 9 mps 725 mmHg 87%
    02:00 +3°C° 1 mm 10 mps 726 mmHg 82%
    03:00 +3°C° 1 mm 11 mps 727 mmHg 76%
    04:00 +3°C° 0.1 mm 10 mps 728 mmHg 76%
    05:00 +2°C° 0.1 mm 9 mps 730 mmHg 76%
    06:00 +2°C° 0.1 mm 8 mps 731 mmHg 76%
    07:00 +3°C° 0 mm 7 mps 731 mmHg 77%
    08:00 +3°C° 0 mm 7 mps 732 mmHg 79%
    09:00 +2°C° 0 mm 6 mps 733 mmHg 80%
    10:00 +3°C° 0 mm 6 mps 734 mmHg 79%
    11:00 +3°C° 0 mm 5 mps 734 mmHg 78%
    12:00 +5°C° 0 mm 5 mps 734 mmHg 77%
    13:00 +3°C° 0.1 mm 5 mps 734 mmHg 79%
    14:00 +3°C° 0.1 mm 5 mps 734 mmHg 81%
    15:00 +4°C° 0.1 mm 4 mps 735 mmHg 83%
    16:00 +4°C° 0.3 mm 4 mps 735 mmHg 85%
    17:00 +3°C° 0.3 mm 4 mps 735 mmHg 86%
    18:00 +3°C° 0.3 mm 3 mps 736 mmHg 88%
    19:00 +3°C° 0.1 mm 3 mps 736 mmHg 89%
    20:00 +2°C° 0.1 mm 3 mps 737 mmHg 89%
    21:00 +2°C° 0.1 mm 3 mps 737 mmHg 89%
    22:00 +2°C° 0 mm 3 mps 737 mmHg 89%
    23:00 +2°C° 0 mm 3 mps 738 mmHg 89%

    17 December, Monday

    Time Temperature Precipitation Wind Pressure Humidity
    00:00 +2°C° 0 mm 3 mps 738 mmHg 89%
    01:00 +2°C° 0.1 mm 3 mps 739 mmHg 90%
    02:00 +2°C° 0.1 mm 3 mps 739 mmHg 90%
    03:00 +2°C° 0.1 mm 3 mps 739 mmHg 90%
    04:00 +1°C° 0 mm 3 mps 740 mmHg 90%
    05:00 +1°C° 0 mm 3 mps 740 mmHg 90%
    06:00 +1°C° 0 mm 3 mps 740 mmHg 90%
    07:00 +1°C° 0 mm 3 mps 741 mmHg 90%
    08:00 +1°C° 0 mm 3 mps 741 mmHg 89%
    09:00 +1°C° 0 mm 3 mps 742 mmHg 89%
    10:00 +2°C° 0 mm 3 mps 742 mmHg 87%
    11:00 +3°C° 0 mm 4 mps 742 mmHg 85%
    12:00 +4°C° 0 mm 4 mps 742 mmHg 83%
    13:00 +4°C° 0 mm 4 mps 742 mmHg 84%
    14:00 +3°C° 0 mm 5 mps 742 mmHg 86%
    15:00 +3°C° 0 mm 5 mps 741 mmHg 87%
    16:00 +4°C° 0 mm 6 mps 741 mmHg 87%
    17:00 +4°C° 0 mm 7 mps 740 mmHg 88%
    18:00 +4°C° 0 mm 7 mps 740 mmHg 89%
    19:00 +5°C° 0.2 mm 8 mps 739 mmHg 88%
    20:00 +5°C° 0.2 mm 8 mps 739 mmHg 87%
    21:00 +6°C° 0.2 mm 9 mps 739 mmHg 86%
    22:00 +6°C° 0.1 mm 9 mps 738 mmHg 86%
    23:00 +6°C° 0.1 mm 9 mps 737 mmHg 85%

    18 December, Tuesday

    Time Temperature Precipitation Wind Pressure Humidity
    00:00 +7°C° 0.1 mm 9 mps 737 mmHg 84%
    01:00 +7°C° 0.1 mm 9 mps 736 mmHg 84%
    02:00 +7°C° 0.1 mm 9 mps 735 mmHg 85%
    03:00 +8°C° 0.1 mm 9 mps 735 mmHg 85%
    04:00 +8°C° 0.2 mm 10 mps 734 mmHg 83%
    05:00 +8°C° 0.2 mm 10 mps 733 mmHg 81%
    06:00 +8°C° 0.2 mm 11 mps 732 mmHg 80%
    07:00 +7°C° 0.3 mm 12 mps 732 mmHg 79%
    08:00 +7°C° 0.3 mm 12 mps 731 mmHg 78%
    09:00 +7°C° 0.3 mm 13 mps 730 mmHg 77%
    10:00 +5°C° 1.3 mm 13 mps 729 mmHg 78%
    11:00 +5°C° 1.3 mm 13 mps 729 mmHg 79%
    12:00 +5°C° 1.3 mm 12 mps 728 mmHg 80%
    13:00 +4°C° 1.3 mm 11 mps 728 mmHg 82%
    14:00 +5°C° 1.3 mm 9 mps 727 mmHg 84%
    15:00 +5°C° 1.3 mm 7 mps 727 mmHg 86%
    16:00 +5°C° 0.3 mm 6 mps 727 mmHg 86%
    17:00 +5°C° 0.3 mm 6 mps 728 mmHg 85%
    18:00 +5°C° 0.3 mm 5 mps 728 mmHg 85%
    19:00 +5°C° 0.1 mm 5 mps 729 mmHg 85%
    20:00 +4°C° 0.1 mm 6 mps 729 mmHg 84%
    21:00 +4°C° 0.1 mm 6 mps 730 mmHg 84%
    22:00 +4°C° 0.1 mm 6 mps 730 mmHg 84%
    23:00 +3°C° 0.1 mm 6 mps 731 mmHg 83%

    19 December, Wednesday

    Time Temperature Precipitation Wind Pressure Humidity
    00:00 +3°C° 0.1 mm 6 mps 731 mmHg 83%
    01:00 +3°C° 0.3 mm 6 mps 731 mmHg 82%
    02:00 +3°C° 0.3 mm 6 mps 731 mmHg 81%
    03:00 +3°C° 0.3 mm 7 mps 731 mmHg 80%
    04:00 +3°C° 0.2 mm 6 mps 731 mmHg 80%
    05:00 +3°C° 0.2 mm 6 mps 731 mmHg 81%
    06:00 +2°C° 0.2 mm 6 mps 731 mmHg 82%
    07:00 +2°C° 0.1 mm 6 mps 731 mmHg 82%
    08:00 +2°C° 0.1 mm 6 mps 731 mmHg 82%
    09:00 +2°C° 0.1 mm 5 mps 732 mmHg 82%
    10:00 +3°C° 0 mm 6 mps 731 mmHg 79%
    11:00 +3°C° 0 mm 6 mps 731 mmHg 77%
    12:00 +4°C° 0 mm 7 mps 731 mmHg 74%
    13:00 +4°C° 0.1 mm 7 mps 730 mmHg 74%
    14:00 +4°C° 0.1 mm 7 mps 730 mmHg 75%
    15:00 +4°C° 0.1 mm 7 mps 729 mmHg 75%
    16:00 +4°C° 0.4 mm 7 mps 729 mmHg 77%
    17:00 +4°C° 0.4 mm 8 mps 729 mmHg 80%
    18:00 +4°C° 0.4 mm 8 mps 728 mmHg 82%
    19:00 +4°C° 0.5 mm 8 mps 728 mmHg 82%
    20:00 +4°C° 0.5 mm 7 mps 728 mmHg 82%
    21:00 +4°C° 0.5 mm 7 mps 728 mmHg 82%
    22:00 +4°C° 0.2 mm 7 mps 728 mmHg 82%
    23:00 +4°C° 0.2 mm 7 mps 727 mmHg 82%
    Show more